User: anonymous   Login
Location: Gleizolles
(44.4833°N, 6.7667°E)
Time: 11:40:37
(UTC+00:00)
Language:

Tiros 1 - Orbit

View from above orbital plane
View from above orbital plane
View from above satellite
View from above satellite

Ground track
Ground track

The orbit data is extracted from the following two-line orbital elements,

1    29U 60002B   24177.05304666  .00000535  00000-0  10583-3 0  9993
2    29  48.3774 211.6272 0023005  40.0179 320.2424 14.76417516435436
Epoch (UTC): 25 June 2024 01:16:23
Eccentricity: 0.0023005
inclination: 48.3774°
perigee height: 624 km
apogee height: 657 km
right ascension of ascending node: 211.6272°
argument of perigee: 40.0179°
revolutions per day: 14.76417516
mean anomaly at epoch: 320.2424°
orbit number at epoch: 43543

The dashed part of the orbit path shows where the satellite is in the earth's shadow,  

DLR